[[{"header":{"parameterUnit":"m.s-1","parameterCategory":1,"la1":30.2991,"la2":30.254,"lo1":-89.0895,"lo2":-89.0444,"dy":0.0017,"dx":0.0017,"nx":28,"ny":28,"refTime":"2023-07-21T21:00:00:Z","depth":0,"parameterNumber":2,"parameterNumberName":"U-component_of_WINDS"},"data":[0,0,0,0,0,0,0,0,0,0,0,0,0,0,0,0,0,0,0,0,0,0,0,0,0,0,0,0,0,0,0,0,0,0,0,0,0,0,0,0,0,0,0,0,0,0,0,0,0,0,0,0,0,0,0,0,0,0,4.4055,4.4056,0,4.4116,4.4117,4.4117,4.4053,4.4051,4.4048,4.4046,4.4116,4.412,4.4124,0,0,0,0,0,0,0,0,0,0,0,0,0,4.3891,4.3895,4.4055,4.4056,4.4056,4.4116,4.4117,4.4118,4.4054,4.4051,4.4048,4.4045,4.4114,4.4119,4.4124,0,0,0,0,0,0,0,0,0,0,0,0,0,4.3959,4.3896,4.4055,4.4032,4.403,4.4116,4.4117,4.4118,4.4054,4.4051,4.4047,4.4043,4.4113,4.4119,4.4125,4.4239,0,0,4.4144,4.4147,0,0,0,0,0,0,0,0,4.3955,4.3965,4.4034,4.4033,4.4032,4.4073,4.4085,4.4159,4.4055,4.4045,4.4046,4.4042,4.4105,4.4112,4.4132,4.4242,4.4245,4.4145,4.4149,4.4151,4.4153,0,0,0,0,0,0,0,4.395,4.3962,4.4079,4.4035,4.4034,4.4021,4.4026,4.4098,4.4096,4.4046,4.4041,4.4049,4.4104,4.4126,4.4133,4.4246,4.4145,4.415,4.4154,4.4157,4.4458,4.4462,0,0,0,0,0,0,4.3947,4.3958,4.4077,4.4081,4.3983,4.4027,4.4033,4.4064,4.4095,4.4096,4.4052,4.4046,4.4117,4.4126,4.4135,4.4273,4.4151,4.4157,4.4161,4.4453,4.4459,4.4463,0,0,0,0,0,0,4.3944,4.3958,4.4075,4.4018,4.4032,4.4034,4.4069,4.4067,4.4089,4.4099,4.4099,4.4075,4.4114,4.4126,4.4214,4.4275,4.416,4.4166,4.4448,4.4455,4.4461,4.4549,0,0,0,0,0,0,4.3939,4.3957,4.3998,4.402,4.4035,4.415,4.4072,4.4071,4.4099,4.4091,4.4121,4.4122,4.4112,4.4205,4.422,4.4281,4.4171,4.4443,4.4451,4.4459,4.4541,4.4558,4.4572,0,0,0,0,0,4.3934,4.4022,4.4001,4.4016,4.4086,4.4154,4.4163,4.4148,4.4104,4.4147,4.4155,4.4121,4.4265,4.4215,4.4231,4.4295,4.4439,4.4449,4.4458,4.4534,4.4554,4.4572,0,0,0,0,0,0,4.4009,4.4024,4.4001,4.4098,4.4125,4.4143,4.4196,4.417,4.4212,4.4203,4.4185,4.4193,4.4286,4.4299,4.4242,4.4409,4.4345,4.4359,4.4397,4.4417,4.4432,4.4428,4.4176,0,0,0,0,0,4.4036,4.4088,4.4098,4.4183,4.4198,4.4195,4.4224,4.421,4.4238,4.425,4.4264,4.4295,4.4347,4.4382,4.4431,4.4542,4.455,4.4594,4.461,4.4623,4.4635,4.4699,4.472,4.4494,4.4494,4.4494,0,0,4.4095,4.4109,4.4143,4.4199,4.4218,4.4275,4.4205,4.4267,4.431,4.426,4.4344,4.4356,4.4389,4.449,4.4535,4.4504,4.4699,4.4635,4.4645,4.4651,4.4711,4.4732,4.4751,4.4501,4.45,4.4499,0,0,4.423,4.4244,4.4318,4.4339,4.4368,4.4366,4.4384,4.4407,4.4412,4.4496,4.4461,4.4513,4.4602,4.4629,4.4654,4.4802,4.4775,4.4819,4.4902,4.4964,4.4981,4.4997,4.5053,4.5073,4.4831,4.4831,4.4831,0,4.4299,4.438,4.4359,4.4425,4.4452,4.4408,4.4485,4.4507,4.4552,4.4574,4.4537,4.4651,4.4671,4.4779,4.4815,4.4836,4.4859,4.4816,4.498,4.4996,4.501,4.5064,4.5084,4.4837,4.4836,4.4835,4.4835,0,4.4465,4.4522,4.4579,4.4622,4.4656,4.4727,4.472,4.4757,4.4741,4.4744,4.4832,4.4854,4.4908,4.4932,4.4917,4.504,4.502,4.4982,4.4918,4.5037,4.5087,4.5107,4.4844,4.4842,4.4841,4.4839,0,0,4.4649,4.4682,4.4703,4.4724,4.4755,4.48,4.4871,4.4921,4.4955,4.4989,4.505,4.5128,4.5094,4.5123,4.5111,4.5165,4.5286,4.5121,4.5122,4.5154,4.5426,4.5456,4.548,4.5266,4.527,4.5273,4.5424,0,4.4788,4.4907,4.4892,4.5008,4.5063,4.5024,4.5086,4.5113,4.5118,4.5168,4.5174,4.5231,4.518,4.5198,4.525,4.526,4.5341,4.5248,4.5327,4.533,4.5322,4.5505,4.5536,4.5678,4.5443,4.5446,4.5449,0,4.4965,4.5004,4.5125,4.515,4.5173,4.5228,4.5276,4.5322,4.5354,4.5354,4.5388,4.5367,4.5442,4.5375,4.5479,4.5417,4.5448,4.5459,4.5464,4.5473,4.5398,4.5522,4.5722,4.5744,4.5479,4.5476,4.5474,0,4.5091,4.5174,4.5258,4.5277,4.5307,4.5348,4.5363,4.5391,4.5424,4.5466,4.5488,4.5538,4.5567,4.5609,4.5604,4.5555,4.5712,4.5643,4.5717,4.5718,4.5753,4.5752,4.5964,4.5769,4.5769,4.5769,4.5768,0,4.5249,4.5325,4.5315,4.5368,4.5454,4.5437,4.5524,4.5534,4.556,4.5616,4.5584,4.5638,4.5627,4.5682,4.5678,4.5767,4.578,4.5785,4.5784,4.5789,4.5789,4.5811,4.5802,4.5774,4.5773,4.5772,4.5771,0,4.5405,4.5401,4.5491,4.5512,4.552,4.5583,4.5603,4.5654,4.5656,4.5728,4.5744,4.575,4.5812,4.5811,4.5883,4.5881,4.5991,4.5977,4.598,4.5978,4.6053,4.6047,4.6289,4.6322,4.6103,4.6105,4.6107,0,4.5507,4.5565,4.5593,4.5627,4.5645,4.5701,4.5734,4.5721,4.5757,4.5799,4.5846,4.5906,4.5953,4.6056,4.6068,4.6124,4.6113,4.6194,4.6121,4.6126,4.6118,4.6116,4.6123,4.6209,4.6212,4.6214,4.6215,0,4.569,4.5685,4.5733,4.5782,4.5822,4.586,4.5894,4.5925,4.5916,4.5959,4.6022,4.6059,4.6132,4.6193,4.6247,4.6266,4.6241,4.6238,4.6258,4.6266,4.6266,4.627,4.6022,4.6233,4.6231,4.623,4.6229,4.6228,4.5824,4.5875,4.5903,4.5959,4.5983,4.6017,4.6067,4.6076,4.6128,4.6185,4.6175,4.6247,4.628,4.635,4.6373,4.6431,4.6403,4.6432,4.644,4.6448,4.6458,4.6255,4.6441,4.644,4.644,4.644,4.6439,0,4.6008,4.6024,4.6075,4.6125,4.6169,4.6139,4.6177,4.6217,4.628,4.6312,4.6359,4.6434,4.6493,4.6511,4.6569,4.6612,4.6603,4.6628,4.6627,4.6632,4.6478,4.6456,4.6636,4.6636,4.6635,4.6635,4.6635,4.6635,4.6109,4.6194,4.6194,4.6293,4.6309,4.6378,4.6403,4.6435,4.6461,4.6545,4.6594,4.6604,4.6631,4.6692,4.6746,4.675,4.6775,4.6806,4.6805,4.6662,4.6642,4.6624,4.6603,4.681,4.6811,4.6955,4.6956,4.6957]},{"header":{"parameterUnit":"m.s-1","parameterCategory":1,"la1":30.2991,"la2":30.254,"lo1":-89.0895,"lo2":-89.0444,"dy":0.0017,"dx":0.0017,"nx":28,"ny":28,"refTime":"2023-07-21T21:00:00:Z","depth":0,"parameterNumber":3,"parameterNumberName":"V-component_of_WINDS"},"data":[0,0,0,0,0,0,0,0,0,0,0,0,0,0,0,0,0,0,0,0,0,0,0,0,0,0,0,0,0,0,0,0,0,0,0,0,0,0,0,0,0,0,0,0,0,0,0,0,0,0,0,0,0,0,0,0,0,0,1.949,1.9491,0,1.9591,1.9592,1.9593,1.9606,1.9605,1.9604,1.9604,1.9704,1.9708,1.9711,0,0,0,0,0,0,0,0,0,0,0,0,0,1.9305,1.9308,1.949,1.9491,1.9493,1.9591,1.9592,1.9593,1.9606,1.9605,1.9604,1.9603,1.9703,1.9707,1.9712,0,0,0,0,0,0,0,0,0,0,0,0,0,1.9393,1.9309,1.949,1.9511,1.9514,1.959,1.9592,1.9594,1.9607,1.9605,1.9604,1.9603,1.9702,1.9707,1.9712,1.9774,0,0,1.9729,1.9731,0,0,0,0,0,0,0,0,1.9388,1.94,1.9507,1.951,1.9513,1.9585,1.9564,1.9654,1.9607,1.9571,1.9603,1.9602,1.9666,1.9674,1.9696,1.9779,1.9783,1.9729,1.9732,1.9735,1.9736,0,0,0,0,0,0,0,1.9382,1.9396,1.953,1.9508,1.9512,1.9514,1.9525,1.9581,1.9625,1.9574,1.9576,1.9587,1.9667,1.9691,1.9698,1.9784,1.9729,1.9734,1.9737,1.9739,1.9918,1.992,0,0,0,0,0,0,1.9372,1.939,1.9527,1.9533,1.9446,1.9518,1.9531,1.9563,1.9625,1.9633,1.9589,1.9588,1.9682,1.9692,1.9702,1.9775,1.9735,1.974,1.9743,1.9917,1.9919,1.992,0,0,0,0,0,0,1.9368,1.9384,1.9523,1.9462,1.948,1.9523,1.9559,1.9566,1.9589,1.9635,1.9643,1.9605,1.9681,1.9694,1.9755,1.9779,1.9742,1.9747,1.9915,1.9917,1.9919,1.9924,0,0,0,0,0,0,1.9363,1.9383,1.9408,1.9463,1.9483,1.9576,1.9561,1.9569,1.9599,1.9599,1.9653,1.966,1.9681,1.9747,1.976,1.9786,1.9751,1.9913,1.9916,1.9919,1.9922,1.9926,1.993,0,0,0,0,0,1.9356,1.9406,1.9409,1.9426,1.9515,1.9577,1.9589,1.9613,1.9601,1.9625,1.9654,1.9658,1.9774,1.9753,1.9768,1.9795,1.9912,1.9915,1.9919,1.992,1.9925,1.993,0,0,0,0,0,0,1.9353,1.9413,1.9418,1.9487,1.9527,1.9579,1.9611,1.9618,1.9662,1.9659,1.9686,1.9698,1.9757,1.9783,1.9758,1.9856,1.9842,1.9848,1.9837,1.9843,1.9847,1.9839,1.9756,0,0,0,0,0,1.936,1.9407,1.9456,1.9512,1.9532,1.9568,1.9596,1.961,1.9652,1.9669,1.9703,1.9743,1.9787,1.9817,1.9861,1.9925,1.9936,1.9951,1.9955,1.9958,1.9963,1.9996,2.0002,1.9932,1.9932,1.9932,0,0,1.9376,1.9415,1.9442,1.9512,1.9545,1.959,1.9582,1.9631,1.9664,1.9677,1.9735,1.9761,1.9807,1.9869,1.9898,1.9892,1.9985,1.9963,1.9965,1.9968,2.0,2.0006,2.0012,1.9934,1.9934,1.9933,0,0,1.9427,1.9462,1.9511,1.9543,1.9592,1.9615,1.9627,1.9678,1.9695,1.9755,1.9764,1.9803,1.9881,1.9912,1.9938,1.9997,2.0001,2.0011,2.0031,2.0062,2.0068,2.0073,2.0091,2.0098,2.0016,2.0016,2.0016,0,1.944,1.951,1.9535,1.9583,1.9612,1.9625,1.9672,1.9702,1.9763,1.9782,1.9775,1.987,1.9902,1.997,1.9984,2.0006,2.0017,2.0005,2.0065,2.007,2.0075,2.0093,2.01,2.0017,2.0017,2.0016,2.0016,0,1.9521,1.9569,1.9602,1.966,1.9693,1.9741,1.9771,1.9801,1.9812,1.9835,1.9894,1.9932,1.9983,2.0,2.0012,2.0068,2.0063,2.006,2.0046,2.0082,2.0099,2.0106,2.0018,2.0017,2.0017,2.0017,0,0,1.9575,1.9644,1.9655,1.968,1.9734,1.9771,1.9817,1.9867,1.9891,1.9931,1.9969,2.0033,2.003,2.006,2.0075,2.0102,2.0142,2.0096,2.0097,2.0101,2.0203,2.0204,2.0211,2.0146,2.0147,2.0148,2.0198,0,1.963,1.9715,1.9737,1.9808,1.9851,1.9862,1.9902,1.9938,1.996,1.9998,2.0023,2.0066,2.006,2.0078,2.0105,2.0132,2.0163,2.0129,2.0179,2.0181,2.0166,2.0221,2.0222,2.0268,2.0206,2.0207,2.0208,0,1.9706,1.9748,1.9823,1.9868,1.9887,1.9923,1.9968,2.0005,2.0045,2.0059,2.009,2.0102,2.0148,2.0132,2.0194,2.017,2.0192,2.0208,2.021,2.0215,2.0196,2.0225,2.0284,2.0289,2.0219,2.0218,2.0217,0,1.9734,1.9809,1.9863,1.9884,1.9939,1.9963,1.9987,2.0025,2.0053,2.0092,2.0109,2.0153,2.0177,2.0209,2.0231,2.0218,2.0291,2.0277,2.0302,2.0301,2.0316,2.0315,2.0377,2.0333,2.0333,2.0333,2.0333,0,1.9792,1.9837,1.9875,1.9908,1.9958,1.9982,2.003,2.0054,2.0087,2.0123,2.0136,2.0169,2.0197,2.0233,2.0251,2.0298,2.0309,2.032,2.0324,2.0318,2.0316,2.0332,2.0329,2.0335,2.0334,2.0334,2.0333,0,1.9832,1.9859,1.9918,1.9965,1.9977,2.0011,2.005,2.0081,2.0103,2.0148,2.016,2.0193,2.0237,2.0262,2.0317,2.0328,2.038,2.0383,2.0366,2.0368,2.039,2.0386,2.0463,2.0473,2.0424,2.0424,2.0425,0,1.9867,1.9901,1.9951,1.9976,2.0,2.004,2.0068,2.0092,2.0119,2.0165,2.019,2.0234,2.027,2.0338,2.0366,2.0407,2.041,2.0434,2.0416,2.0408,2.0408,2.0405,2.0407,2.0437,2.0437,2.0438,2.0438,0,1.9924,1.9935,1.9975,2.0018,2.0051,2.0086,2.0121,2.014,2.017,2.02,2.0244,2.0272,2.0327,2.0369,2.0411,2.0434,2.044,2.0443,2.0451,2.0444,2.0432,2.0437,2.0372,2.0441,2.0441,2.0441,2.0441,2.044,1.9961,1.9991,2.003,2.0072,2.0101,2.0132,2.0163,2.0188,2.0225,2.0272,2.0284,2.0329,2.0365,2.0422,2.0446,2.048,2.0476,2.0487,2.049,2.0492,2.0491,2.0428,2.0488,2.0488,2.0488,2.0488,2.0488,0,2.0017,2.0042,2.0081,2.0129,2.0162,2.0165,2.0203,2.023,2.027,2.0303,2.0338,2.0387,2.0427,2.0457,2.0498,2.0519,2.0523,2.0529,2.0527,2.0531,2.0494,2.0482,2.0525,2.0525,2.0525,2.0525,2.0525,2.0525,2.005,2.01,2.0116,2.0179,2.0203,2.0248,2.0269,2.0297,2.0323,2.0378,2.0411,2.0431,2.0462,2.0504,2.054,2.0548,2.0561,2.0567,2.0575,2.0539,2.0535,2.0531,2.052,2.057,2.057,2.0609,2.0609,2.061]}]]